Southern California Logo

Carlsbad, CA Condo Real Estate Listings

255 Total Real Estate Listings * Click on table heading to sort
Date Posted Property Type Style Address Price Living Area Lot Size Price/Sq Ft.
2018-06-21 Condo 7538 Gibraltar Street Carlsbad, CA 92009 $324,999 790 sq. ft. $411
2018-06-20 Condo 910 Caminito Madrigal Carlsbad, CA 92011 $599,999 1,188 sq. ft. $505
2018-06-19 Condo 4537 Hartford Pl Carlsbad, CA 92010 $620,000 1,724 sq. ft. 3,920 sq. ft. $360
2018-06-19 Condo 2344 Caringa Way Carlsbad, CA 92009 $425,000 1,080 sq. ft. 141,570 sq. ft. $394
2018-06-19 Condo 3438 Ravine Drive Carlsbad, CA 92010 $915,000 2,705 sq. ft. 5,663 sq. ft. $338
2018-06-19 Condo Modern 377 Juniper Ave Carlsbad, CA 92008 $1,050,000 1,653 sq. ft. 8,276 sq. ft. $635
2018-06-19 Condo 3210 Costa Alta Drive Carlsbad, CA 92009 $398,000 960 sq. ft. $415
2018-06-18 Condo Mediterranean/Spanish 7620 Camino Abierto Carlsbad, CA 92009 $879,900 1,989 sq. ft. $442
2018-06-18 Condo Medspn 6924 Thrush Pl Carlsbad, CA 92011 $729,000 1,743 sq. ft. 117,176 sq. ft. $418
2018-06-16 Condo 4014 Layang Layang Cir Carlsbad, CA 92008 $599,000 1,664 sq. ft. 133,294 sq. ft. $360
2018-06-15 Condo 7735 Via Rico Carlsbad, CA 92009 $699,000 2,089 sq. ft. 179,032 sq. ft. $335
2018-06-15 Condo 3156 Via Puerta Carlsbad, CA 92009 $589,000 1,456 sq. ft. $405
2018-06-15 Condo Crftbg 6802 Urubu Street Carlsbad, CA 92009 $669,500 1,369 sq. ft. $489
2018-06-15 Condo Contemporary 4113 Peninsula Dr Carlsbad, CA 92010 $624,900 1,509 sq. ft. 88,427 sq. ft. $414
2018-06-15 Condo 4008 Layang Layang Cir Carlsbad, CA 92008 $544,900 1,664 sq. ft. 133,294 sq. ft. $327
2018-06-15 Condo 2558 Navarra Dr Carlsbad, CA 92009 $529,000 1,846 sq. ft. $287
2018-06-14 Condo 3391 Campo Azul Court Carlsbad, CA 92010 $555,990 1,452 sq. ft. $383
2018-06-14 Condo 3395 Campo Azul Court Carlsbad, CA 92010 $552,990 1,420 sq. ft. $389
2018-06-14 Condo 175 Maple Ave Carlsbad, CA 92008 $1,439,000 2,057 sq. ft. $700
2018-06-14 Condo 2748 Carlsbad Blvd Carlsbad, CA 92008 $999,999 1,558 sq. ft. $642
2018-06-13 Condo 3253 Tondi Way Carlsbad, CA 92010 $710,990 1,934 sq. ft. $368
2018-06-13 Condo 7000 Ballena Way Carlsbad, CA 92009 $415,000 968 sq. ft. $429
2018-06-13 Condo 3257 Tondi Way Carlsbad, CA 92010 $709,990 1,934 sq. ft. $367
2018-06-13 Condo 3112 Simba Way Carlsbad, CA 92010 $630,990 1,533 sq. ft. $412
2018-06-13 Condo 3111 Simba Way Carlsbad, CA 92010 $645,990 1,610 sq. ft. $401
2018-06-13 Condo 3110 Simba Way Carlsbad, CA 92010 $678,990 1,610 sq. ft. $422
2018-06-13 Condo 3115 Simba Way Carlsbad, CA 92010 $679,990 1,843 sq. ft. $369
2018-06-13 Condo 3102 Simba Way Carlsbad, CA 92010 $698,990 1,843 sq. ft. $379
2018-06-13 Condo 3104 Simba Way Carlsbad, CA 92010 $618,990 1,533 sq. ft. $404
2018-06-13 Condo 3220 Corte Tamarindo Carlsbad, CA 92009 $1,400,000 4,212 sq. ft. 8,712 sq. ft. $332
2018-06-12 Condo Colonial 6575 Paseo Del Norte Carlsbad, CA 92011 $599,000 1,060 sq. ft. 268,765 sq. ft. $565
2018-06-12 Condo 2349 Caringa Way Carlsbad, CA 92009 $549,000 1,533 sq. ft. 65,340 sq. ft. $358
2018-06-11 Condo 2866 Englewood Way Carlsbad, CA 92010 $509,000 1,362 sq. ft. 107,158 sq. ft. $374
2018-06-11 Condo 7230 Surfbird Cir Carlsbad, CA 92011 $825,000 1,705 sq. ft. 23,958 sq. ft. $484
2018-06-10 Condo Mediterranean/Spanish 7175 Pintail Dr Carlsbad, CA 92011 $885,000 2,323 sq. ft. $381
2018-06-10 Condo 2625 Pirineos Way Carlsbad, CA 92009 $480,000 1,357 sq. ft. $354
2018-06-09 Condo 3168 Camino Arroyo Carlsbad, CA 92009 $520,000 1,409 sq. ft. 205,168 sq. ft. $369
2018-06-09 Condo 3132 Via Puerta Carlsbad, CA 92009 $498,000 1,110 sq. ft. $449
2018-06-09 Condo 3064 Rancho La Presa Carlsbad, CA 92009 $649,800 1,411 sq. ft. 6,098 sq. ft. $461
2018-06-09 Condo 3538 Ridgewood Way Carlsbad, CA 92010 $415,000 994 sq. ft. $418
2018-06-09 Condo Mediterranean/Spanish 907 Caminito Madrigal Carlsbad, CA 92011 $625,000 1,180 sq. ft. $530
2018-06-09 Condo 901 Caminito Estrada Carlsbad, CA 92011 $679,000 1,283 sq. ft. 152,024 sq. ft. $529
2018-06-08 Condo 6747 Palermi Place Carlsbad, CA 92011 $1,170,000 3,126 sq. ft. $374
2018-06-08 Condo 7413 Magellan St Carlsbad, CA 92011 $1,295,000 2,736 sq. ft. 6,098 sq. ft. $473
2018-06-08 Condo 2988 Camino Serbal Carlsbad, CA 92009 $1,199,000 3,305 sq. ft. 8,712 sq. ft. $363
2018-06-08 Condo Mediterranean/Spanish 6106 Rancho Brida Carlsbad, CA 92009 $459,000 1,044 sq. ft. 223,898 sq. ft. $440
2018-06-07 Condo Capcod 6970 Sandcastle Drive Carlsbad, CA 92011 $925,000 1,675 sq. ft. 3,920 sq. ft. $552
2018-06-07 Condo Contemporary 7512 Viejo Castilla Way Carlsbad, CA 92009 $424,900 979 sq. ft. $434
2018-06-07 Condo 3125 Calle Viento Carlsbad, CA 92009 $523,888 1,158 sq. ft. 446,054 sq. ft. $452
2018-06-07 Condo 2348 La Costa Ave Carlsbad, CA 92009 $494,900 1,219 sq. ft. $406
2018-06-07 Condo Mediterranean/Spanish 755 Magnolia Ave Carlsbad, CA 92008 $669,000 1,092 sq. ft. $613
2018-06-07 Condo 2319 Caringa Way Carlsbad, CA 92009 $539,999 1,536 sq. ft. $352
2018-06-07 Condo 6575 Paseo Del Norte Carlsbad, CA 92011 $650,000 1,188 sq. ft. $547
2018-06-06 Condo 2348 La Costa Avenue Carlsbad, CA 92009 $425,000 842 sq. ft. $505
2018-06-06 Condo 7515 Jerez Ct Carlsbad, CA 92009 $615,000 1,919 sq. ft. $320
2018-06-06 Condo Mediterranean/Spanish 1917 Alga Road Carlsbad, CA 92009 $395,000 1,104 sq. ft. $358
2018-06-06 Condo 7578 Gibraltar St Carlsbad, CA 92009 $475,000 1,300 sq. ft. 16,117 sq. ft. $365
2018-06-05 Condo 3173 Salina Road Carlsbad, CA 92010 $711,990 1,934 sq. ft. $368
2018-06-05 Condo 3533 Cedarbridge Way Carlsbad, CA 92010 $469,000 1,112 sq. ft. $422
2018-06-04 Condo 6919 Quail Pl Carlsbad, CA 92009 $328,500 575 sq. ft. 249,599 sq. ft. $571
2018-06-04 Condo 2495 Wellspring Street Carlsbad, CA 92010 $1,700,000 3,897 sq. ft. $436
2018-06-04 Condo 2491 Wellspring Street Carlsbad, CA 92010 $1,600,000 3,019 sq. ft. $530
2018-06-04 Condo 2487 Wellspring Street Carlsbad, CA 92010 $1,500,000 2,984 sq. ft. $503
2018-06-04 Condo 4575 Essex Ct Carlsbad, CA 92010 $579,000 1,329 sq. ft. 112,820 sq. ft. $436
2018-06-04 Condo 4704 Amberwood Ct Carlsbad, CA 92008 $600,000 1,916 sq. ft. 2,178 sq. ft. $313
2018-06-04 Condo 2920 Avenida Pimentera Carlsbad, CA 92009 $1,325,000 3,344 sq. ft. $396
2018-06-04 Condo 6267 Via Trato Carlsbad, CA 92009 $505,000 1,292 sq. ft. 34,848 sq. ft. $391
2018-06-04 Condo 7533 Gibraltar St Carlsbad, CA 92009 $865,000 2,589 sq. ft. 66,647 sq. ft. $334
2018-06-04 Condo 3396 Cordillera Court Carlsbad, CA 92010 $617,990 1,681 sq. ft. $368
2018-06-04 Condo Mediterranean/Spanish 2815 Unicornio St Carlsbad, CA 92009 $649,900 1,826 sq. ft. 52,272 sq. ft. $356
2018-06-04 Condo 3107 Simba Way Carlsbad, CA 92010 $634,990 1,610 sq. ft. $394
2018-06-02 Condo Medspn 7030 Snapdragon Carlsbad, CA 92011 $825,000 1,617 sq. ft. $510
2018-06-02 Condo 6925 Catamaran Drive Carlsbad, CA 92011 $1,350,000 2,261 sq. ft. $597
2018-06-01 Condo Mediterranean/Spanish 6719 Hyacinth Cir Carlsbad, CA 92011 $849,000 1,384 sq. ft. 3,485 sq. ft. $613
2018-06-01 Condo 2534 Navarra Dr Carlsbad, CA 92009 $858,888 2,523 sq. ft. 38,333 sq. ft. $340
2018-06-01 Condo 7388 Altiva Place Carlsbad, CA 92009 $444,800 1,032 sq. ft. $431
2018-06-01 Condo 818 Caminito Azul Carlsbad, CA 92011 $600,000 1,350 sq. ft. $444
2018-06-01 Condo 4637 Park Dr Carlsbad, CA 92008 $699,950 1,268 sq. ft. 17,424 sq. ft. $552
2018-06-01 Condo 6345 Keeneland Dr Carlsbad, CA 92009 $2,395,000 6,219 sq. ft. 21,344 sq. ft. $385
2018-05-31 Condo 6757 Frenata Pl Carlsbad, CA 92011 $1,199,000 3,126 sq. ft. $384
2018-05-31 Condo Cape Cod 2567 State St Carlsbad, CA 92008 $1,225,000 2,147 sq. ft. $571
2018-05-31 Condo 2607 Pirineos Carlsbad, CA 92009 $600,000 1,552 sq. ft. $387
2018-05-31 Condo Mediterranean/Spanish 6904 Peach Tree Rd Carlsbad, CA 92011 $659,000 1,438 sq. ft. $458
2018-05-30 Condo 2407 Sacada Circle Carlsbad, CA 92009 $819,000 2,149 sq. ft. $381
2018-05-30 Condo 1662 Chamisal Ct Carlsbad, CA 92011 $825,000 1,707 sq. ft. $483
2018-05-30 Condo 317 Pine Ave Carlsbad, CA 92008 $699,000 1,008 sq. ft. $693
2018-05-30 Condo Cape Cod 6926 Carnation Dr Carlsbad, CA 92011 $574,500 1,342 sq. ft. 259,182 sq. ft. $428
2018-05-30 Condo Ranch 3357 Corte Tiburon Carlsbad, CA 92009 $924,900 2,097 sq. ft. 6,534 sq. ft. $441
2018-05-30 Condo 1790 Callisia Court Carlsbad, CA 92011 $725,000 1,720 sq. ft. $422
2018-05-29 Condo 3113 Camino Del Arco Carlsbad, CA 92009 $519,000 1,158 sq. ft. $448
2018-05-29 Condo 3150 Via Simpatia Carlsbad, CA 92009 $499,000 1,316 sq. ft. 74,923 sq. ft. $379
2018-05-29 Condo 7357 Portage Way Carlsbad, CA 92011 $899,900 1,869 sq. ft. 48,352 sq. ft. $481
2018-05-26 Condo 3156 Via Puerta Carlsbad, CA 92009 $600,000 1,422 sq. ft. $422
2018-05-25 Condo 1708 Carissa Way Carlsbad, CA 92011 $719,000 1,720 sq. ft. $418
2018-05-25 Condo Craftsman/Bungalow 6894 Tradewinds Dr Carlsbad, CA 92011 $1,379,000 2,629 sq. ft. $525
2018-05-25 Condo 7185 Estrella De Mar Rd Carlsbad, CA 92009 $509,900 1,264 sq. ft. $403
2018-05-25 Condo Mediterranean/Spanish 3170 Via Iris Carlsbad, CA 92009 $795,000 2,386 sq. ft. 17,424 sq. ft. $333
2018-05-24 Condo 4839 Nelson Court Carlsbad, CA 92010 $1,400,000 2,959 sq. ft. $473
2018-05-24 Condo 4843 Nelson Court Carlsbad, CA 92010 $1,400,000 2,949 sq. ft. $475
2018-05-24 Condo 2363 Caringa Way Carlsbad, CA 92009 $549,900 1,454 sq. ft. 70,567 sq. ft. $378
2018-05-24 Condo 813 Kalpati Cir Carlsbad, CA 92008 $649,000 1,660 sq. ft. $391
2018-05-24 Condo Contmp 7042 Via Ostiones Carlsbad, CA 92009 $925,000 2,815 sq. ft. 7,405 sq. ft. $329
2018-05-23 Condo Mediterranean/Spanish 2005 Costa Del Mar Carlsbad, CA 92009 $510,000 791 sq. ft. $645
2018-05-23 Condo Contemporary 2687 State Street Carlsbad, CA 92008 $1,475,000 2,022 sq. ft. $729
2018-05-23 Condo 2024 Avenue Of The Trees Carlsbad, CA 92008 $635,000 1,830 sq. ft. 3,485 sq. ft. $347
2018-05-23 Condo Cape Cod 2557 State St Carlsbad, CA 92008 $1,265,000 2,180 sq. ft. $580
2018-05-22 Condo 7490 Via De Fortuna Carlsbad, CA 92009 $729,000 2,744 sq. ft. 134,165 sq. ft. $266
2018-05-22 Condo Craftsman/Bungalow 6965 Catamaran Dr Carlsbad, CA 92011 $1,299,500 2,033 sq. ft. $639
2018-05-22 Condo 6987 Brass Place Carlsbad, CA 92009 $729,000 2,216 sq. ft. 41,382 sq. ft. $329
2018-05-22 Condo 3675 Glen Ave Carlsbad, CA 92010 $829,900 1,904 sq. ft. $436
2018-05-21 Condo 7704 Caminito Tingo Carlsbad, CA 92009 $399,000 1,022 sq. ft. $390
2018-05-21 Condo 3022 Avenida Christina Carlsbad, CA 92009 $540,000 1,350 sq. ft. $400
2018-05-19 Condo 4832 Nelson Court Carlsbad, CA 92010 $1,249,810 2,959 sq. ft. $422
2018-05-19 Condo 4726 Chase Court Carlsbad, CA 92010 $2,200,000 3,878 sq. ft. $567
2018-05-19 Condo 4718 Chase Court Carlsbad, CA 92010 $2,200,000 4,407 sq. ft. $499
2018-05-19 Condo 4732 Borden Court Carlsbad, CA 92010 $1,278,900 4,407 sq. ft. 6,098 sq. ft. $290
2018-05-19 Condo 3344 Campo Azul Court Carlsbad, CA 92010 $602,990 1,420 sq. ft. $425
2018-05-19 Condo 3348 Campo Azul Court Carlsbad, CA 92010 $601,990 1,420 sq. ft. $424
2018-05-19 Condo 3340 Campo Azul Court Carlsbad, CA 92010 $679,990 1,681 sq. ft. $405
2018-05-19 Condo 3352 Campo Azul Court Carlsbad, CA 92010 $673,990 1,681 sq. ft. $401
2018-05-19 Condo 111 Tamarack Avenue 104 Carlsbad, CA 92008 $1,299,000 1,398 sq. ft. 26,572 sq. ft. $929
2018-05-19 Condo 3387 Campo Azul Court Carlsbad, CA 92010 $552,990 1,420 sq. ft. $389
2018-05-18 Condo 2360 Hosp Way Carlsbad, CA 92008 $349,000 810 sq. ft. $431
2018-05-18 Condo 2319 Caringa Way Carlsbad, CA 92009 $574,900 1,536 sq. ft. $374
2018-05-18 Condo 517 Dew Point Avenue Carlsbad, CA 92011 $949,000 2,031 sq. ft. $467
2018-05-18 Condo 2523 Navarra Dr Carlsbad, CA 92009 $715,000 1,580 sq. ft. $453
2018-05-18 Condo Cape Cod 2399 Jefferson Carlsbad, CA 92008 $899,000 1,544 sq. ft. $582
2018-05-17 Condo 1030 Camino De Las Ondas Carlsbad, CA 92011 $1,069,990 2,313 sq. ft. $463
2018-05-17 Condo 1034 Camino De Las Ondas Carlsbad, CA 92011 $1,099,990 2,431 sq. ft. $452
2018-05-17 Condo 1038 Camino De Las Ondas Carlsbad, CA 92011 $1,099,990 2,431 sq. ft. $452
2018-05-17 Condo 1040 Camino De Las Ondas Carlsbad, CA 92011 $1,069,990 2,313 sq. ft. $463
2018-05-17 Condo Engilsh 7367 Alicante Rd Carlsbad, CA 92009 $874,000 3,761 sq. ft. $232
2018-05-17 Condo Cape Cod 824 Skysail Ave Carlsbad, CA 92011 $634,000 948 sq. ft. $669
2018-05-17 Condo 7323 Estrella De Mar Rd Carlsbad, CA 92009 $745,000 1,208 sq. ft. 23,087 sq. ft. $617
2018-05-17 Condo 2988 Camino Serbal Carlsbad, CA 92009 $1,275,000 3,305 sq. ft. 8,712 sq. ft. $386
2018-05-17 Condo 807 Skysail Carlsbad, CA 92011 $638,000 1,084 sq. ft. $589
2018-05-17 Condo 902 Caminito Madrigal Carlsbad, CA 92011 $515,000 897 sq. ft. $574
2018-05-17 Condo 2319 Caringa Way Carlsbad, CA 92009 $549,999 1,536 sq. ft. $358
2018-05-16 Condo 3139 Avenida Topanga Carlsbad, CA 92009 $529,900 1,350 sq. ft. $393
2018-05-16 Condo Mediterranean/Spanish 2005 Costa Del Mar Road Carlsbad, CA 92009 $510,000 791 sq. ft. $645
2018-05-16 Condo 4832 Mesa Trail Pl Carlsbad, CA 92010 $809,900 2,053 sq. ft. $394
2018-05-16 Condo 2342 Caringa Way Carlsbad, CA 92009 $419,900 1,080 sq. ft. $389
2018-05-16 Condo 4637 Park Carlsbad, CA 92008 $849,000 1,200 sq. ft. $708
2018-05-14 Condo 2535 Navarra Dr Carlsbad, CA 92009 $412,000 1,190 sq. ft. 54,014 sq. ft. $346
2018-05-14 Condo 1913 Alga Rd Carlsbad, CA 92009 $550,000 1,436 sq. ft. $383
2018-05-13 Condo 7797 Caminito Monarca Carlsbad, CA 92009 $542,000 1,200 sq. ft. $452
2018-05-13 Condo Mediterranean/Spanish 6537 Corte Valdez Carlsbad, CA 92009 $550,000 1,350 sq. ft. $407
2018-05-12 Condo 3708 Ridge Court Carlsbad, CA 92010 $779,000 1,957 sq. ft. $398
2018-05-11 Condo 2352 Hosp Carlsbad, CA 92008 $339,000 810 sq. ft. 125,453 sq. ft. $419
2018-05-11 Condo 6981 Ballena Way Carlsbad, CA 92009 $435,000 968 sq. ft. 442,134 sq. ft. $449
2018-05-11 Condo 2380 Hosp Way Carlsbad, CA 92008 $339,000 810 sq. ft. $419
2018-05-11 Condo 2331 Caringa Way Carlsbad, CA 92009 $549,000 1,536 sq. ft. $357
2018-05-11 Condo 2630 Pirineos Way Carlsbad, CA 92009 $405,000 978 sq. ft. $414
2018-05-11 Condo 3391 Campo Azul Court Carlsbad, CA 92010 $555,990 1,452 sq. ft. $383
2018-05-11 Condo 4022 Layang Layang Circle Carlsbad, CA 92008 $499,000 1,271 sq. ft. $393
2018-05-11 Condo 6566 Corte Cisco Carlsbad, CA 92009 $598,000 1,714 sq. ft. $349
2018-05-11 Condo 2994 Brandon Cir Carlsbad, CA 92010 $589,900 1,435 sq. ft. 4,356 sq. ft. $411
2018-05-10 Condo 6480 Terraza Portico Carlsbad, CA 92009 $630,000 1,406 sq. ft. $448
2018-05-10 Condo 2862 Englewood Way Carlsbad, CA 92010 $534,900 1,512 sq. ft. 107,158 sq. ft. $354
2018-05-10 Condo 7727 Caminito Monarca Carlsbad, CA 92009 $539,500 1,250 sq. ft. $432
2018-05-10 Condo 1716 Fairlead Carlsbad, CA 92011 $665,000 1,500 sq. ft. $443
2018-05-10 Condo 886 Ginger Ave Carlsbad, CA 92011 $475,000 1,020 sq. ft. 321,037 sq. ft. $466
2018-05-09 Condo 2959 Cliff Cir Carlsbad, CA 92010 $679,000 1,553 sq. ft. 90,605 sq. ft. $437
2018-05-09 Condo 801 Kalpati Carlsbad, CA 92008 $739,000 1,631 sq. ft. $453
2018-05-09 Condo 905 Caminito Madrigal E Carlsbad, CA 92011 $547,900 1,027 sq. ft. $534
2018-05-09 Condo 7341 Alicante Rd Carlsbad, CA 92009 $479,000 1,015 sq. ft. 290,981 sq. ft. $472
2018-05-09 Condo 7041 Sitio Frontera Carlsbad, CA 92009 $1,098,000 3,316 sq. ft. $331
2018-05-08 Condo 7404 Via De Fortuna Carlsbad, CA 92009 $1,065,000 3,663 sq. ft. $291
2018-05-08 Condo 7310 Black Swan Pl Carlsbad, CA 92011 $1,249,000 3,216 sq. ft. 7,405 sq. ft. $388
2018-05-08 Condo 3253 Tondi Way Carlsbad, CA 92010 $710,990 1,934 sq. ft. $368
2018-05-08 Condo 3104 Simba Way Carlsbad, CA 92010 $618,990 1,533 sq. ft. $404
2018-05-08 Condo 3112 Simba Way Carlsbad, CA 92010 $630,990 1,533 sq. ft. $412
2018-05-08 Condo 3106 Simba Way Carlsbad, CA 92010 $666,990 1,610 sq. ft. $414
2018-05-08 Condo 3110 Simba Way Carlsbad, CA 92010 $678,990 1,610 sq. ft. $422
2018-05-08 Condo 3102 Simba Way Carlsbad, CA 92010 $698,990 1,843 sq. ft. $379
2018-05-08 Condo 3251 Tondi Way Carlsbad, CA 92010 $704,990 2,011 sq. ft. $351
2018-05-08 Condo 3115 Simba Way Carlsbad, CA 92010 $679,990 1,843 sq. ft. $369
2018-05-08 Condo 3111 Simba Way Carlsbad, CA 92010 $645,990 1,610 sq. ft. $401
2018-05-08 Condo Traditional 2744 Carlsbad Blvd Carlsbad, CA 92008 $1,325,000 2,367 sq. ft. 30,928 sq. ft. $560
2018-05-08 Condo 6566 Corte La Paz Carlsbad, CA 92009 $549,900 1,505 sq. ft. 223,463 sq. ft. $365
2018-05-08 Condo 2348 La Costa Ave Carlsbad, CA 92009 $471,900 1,224 sq. ft. 51,836 sq. ft. $386
2018-05-08 Condo 6930 Sandpiper Pl Carlsbad, CA 92009 $449,000 1,073 sq. ft. 199,069 sq. ft. $418
2018-05-08 Condo Monterey/Hacienda/Adobe 7301 Alicante Carlsbad, CA 92009 $474,900 1,373 sq. ft. $346
2018-05-08 Condo 7488 Alicante Road Carlsbad, CA 92009 $425,000 1,032 sq. ft. $412
2018-05-08 Condo 2607 Pirineos Way Carlsbad, CA 92009 $489,000 1,400 sq. ft. 125,453 sq. ft. $349
2018-05-08 Condo 3133 Via Puerta Carlsbad, CA 92009 $495,000 1,316 sq. ft. $376
2018-05-08 Condo 2639 Pirineos Way Carlsbad, CA 92009 $469,900 1,400 sq. ft. $336
2018-05-08 Condo 1925 Alga Carlsbad, CA 92009 $384,000 1,104 sq. ft. $348
2018-05-08 Condo 2340 Hosp Way Carlsbad, CA 92008 $349,900 1,017 sq. ft. $344
2018-05-08 Condo 1941 Alga Road Carlsbad, CA 92009 $390,000 1,207 sq. ft. $323
2018-05-07 Condo 2843 Unicornio Street Carlsbad, CA 92009 $639,000 2,026 sq. ft. $315
2018-05-07 Condo Mediterranean/Spanish 2005 Costa Del Mar Road Carlsbad, CA 92009 $499,000 791 sq. ft. $631
2018-05-07 Condo Contemporary 1706 Camassia Lane Carlsbad, CA 92011 $649,900 1,545 sq. ft. $421
2018-05-07 Condo Medspn 6468 Terraza Portico Carlsbad, CA 92009 $630,000 1,406 sq. ft. $448
2018-05-07 Condo 6076 Paseo Salinero Carlsbad, CA 92009 $459,000 1,140 sq. ft. $403
2018-05-07 Condo 3450 Sitio Sandia Carlsbad, CA 92009 $1,599,800 4,577 sq. ft. 12,632 sq. ft. $350
2018-05-07 Condo 4829 Flying Cloud Way Carlsbad, CA 92008 $770,000 1,426 sq. ft. $540
2018-05-06 Condo 4021 Layang Layang Cir Carlsbad, CA 92008 $545,000 1,463 sq. ft. 158,123 sq. ft. $373
2018-05-06 Condo 2270 La Costa Ave Carlsbad, CA 92009 $549,000 1,230 sq. ft. $446
2018-05-06 Condo 6887 Alderwood Drive Carlsbad, CA 92011 $599,000 999 sq. ft. $600
2018-05-06 Condo Craftsman/Bungalow 7309 Lantana Terrace Carlsbad, CA 92011 $738,000 1,278 sq. ft. 3,485 sq. ft. $577
2018-05-06 Condo 2504 Navarra Drive Carlsbad, CA 92009 $539,999 1,392 sq. ft. $388
2018-05-06 Condo 4722 Chase Court Carlsbad, CA 92010 $2,000,000 4,427 sq. ft. $452
2018-05-06 Condo 2534 Glasgow Carlsbad, CA 92010 $1,324,580 3,282 sq. ft. $404
2018-05-06 Condo 4732 Kentner Court Carlsbad, CA 92010 $1,182,610 2,961 sq. ft. $399
2018-05-06 Condo 4728 Kentner Ct Carlsbad, CA 92010 $1,219,000 4,407 sq. ft. $277
2018-05-06 Condo 4736 Kentner Court Carlsbad, CA 92010 $1,225,000 4,427 sq. ft. $277
2018-05-06 Condo 3395 Campo Azul Court Carlsbad, CA 92010 $552,990 1,420 sq. ft. $389
2018-05-06 Condo 7320 Paseo Verde Carlsbad, CA 92009 $529,900 1,409 sq. ft. 439,956 sq. ft. $376
2018-05-06 Condo Contemporary 814 Caminito Azul Carlsbad, CA 92011 $629,000 1,326 sq. ft. 3,920 sq. ft. $474
2018-05-06 Condo 636 Sandside Ct Carlsbad, CA 92011 $1,175,000 2,468 sq. ft. $476
2018-05-06 Condo 1971 Swallow Ln Carlsbad, CA 92009 $519,000 1,342 sq. ft. $387
2018-05-06 Condo Mediterranean/Spanish 2916 Luciernaga Street Carlsbad, CA 92009 $555,000 1,534 sq. ft. $362
2018-05-06 Condo 906 Caminito Madrigal Carlsbad, CA 92011 $619,000 959 sq. ft. $645
2018-05-06 Condo 7777 Caminito Monarca Carlsbad, CA 92009 $515,000 1,308 sq. ft. $394
2018-05-06 Condo 5428 Spencer Ln Carlsbad, CA 92008 $429,500 1,810 sq. ft. 4,356 sq. ft. $237
2018-05-06 Condo Capcod 3732 Bennington Ct Carlsbad, CA 92010 $479,000 1,000 sq. ft. 1,307 sq. ft. $479
2018-05-06 Condo 2544 Navarra Dr Carlsbad, CA 92009 $450,000 1,411 sq. ft. $319
2018-05-06 Condo 2376 Caringa Way Carlsbad, CA 92009 $455,455 1,440 sq. ft. $316
2018-05-06 Condo 2805 New Castle Way Carlsbad, CA 92010 $449,900 1,112 sq. ft. $405
2018-05-06 Condo 4065 Harrison St Carlsbad, CA 92008 $389,000 1,030 sq. ft. $378
2018-03-26 Condo Mediterranean/Spanish 7319 Estrella De Mar Road Carlsbad, CA 92009 $1,199,000 1,810 sq. ft. $662
2018-03-25 Condo Custom Built 295 Chinquapin Avenue Carlsbad, CA 92008 $1,899,900 2,630 sq. ft. $722
2018-03-22 Condo 2006 Costa Del Mar Rd Carlsbad, CA 92009 $969,900 1,810 sq. ft. 11,761 sq. ft. $536
2018-03-20 Condo 2538 Navarra Drive Carlsbad, CA 92009 $830,000 2,523 sq. ft. $329
2018-03-18 Condo Craftsman/Bungalow 3465 Don Lorenzo Carlsbad, CA 92010 $488,800 1,997 sq. ft. $245
2018-03-16 Condo Contemporary 4032 Garfield Carlsbad, CA 92008 $959,000 1,514 sq. ft. $633
2018-03-15 Condo Craftsman/Bungalow 5434 Don Felipe Drive Carlsbad, CA 92010 $430,000 1,744 sq. ft. $247
2018-03-10 Condo 7787 Caminito Monarca Carlsbad, CA 92009 $619,000 1,622 sq. ft. $382
2018-03-10 Condo 2744 Carlsbad Blvd Carlsbad, CA 92008 $1,345,000 2,870 sq. ft. 30,928 sq. ft. $469
2018-03-10 Condo 365 Hemlock Ave Carlsbad, CA 92008 $649,000 1,100 sq. ft. $590
2018-03-09 Condo 7047 Estrella De Mar Rd Carlsbad, CA 92009 $549,000 2,120 sq. ft. $259
2018-03-09 Condo 2297 Lindsay Dr Carlsbad, CA 92008 $448,983 1,440 sq. ft. 6,098 sq. ft. $312
2018-03-05 Condo 2744 Carlsbad Blvd Carlsbad, CA 92008 $1,300,000 2,367 sq. ft. $549
2018-03-01 Condo 7515 Jerez Ct Carlsbad, CA 92009 $615,000 1,929 sq. ft. $319
2018-02-27 Condo Craftsman 2341 Ocean Street Carlsbad, CA 92008 $2,700,000 2,706 sq. ft. $998
2018-02-10 Condo 2567 Glasgow Carlsbad, CA 92010 $1,550,000 4,313 sq. ft. $359
2018-02-10 Condo 831 Kalpati Circle Carlsbad, CA 92008 $535,000 1,154 sq. ft. $464
2018-02-05 Condo 4730 Crespi Court Carlsbad, CA 92010 $1,256,500 4,686 sq. ft. $268
2018-02-05 Condo Mediterranean/Spanish 7323 Estrella De Mar Road Carlsbad, CA 92009 $325,000 578 sq. ft. $562
2018-02-03 Condo 2535 Wellspring Street Carlsbad, CA 92010 $1,062,380 3,051 sq. ft. $348
2018-02-02 Condo 3538 Ridgewood Way Carlsbad, CA 92010 $415,000 994 sq. ft. 219,107 sq. ft. $418
2018-02-01 Condo Mediterranean/Spanish 4747 Marina Drive Carlsbad, CA 92008 $950,000 1,278 sq. ft. $743
2018-02-01 Condo Mediterranean/Spanish 4747 Marina Drive Carlsbad, CA 92008 $875,000 1,278 sq. ft. $685
2018-02-01 Condo Cape Cod 119 Channel Rd Carlsbad, CA 92011 $1,695,000 2,629 sq. ft. 275,735 sq. ft. $645
2018-01-19 Condo Cape Cod 7039 Whitewater Street Carlsbad, CA 92011 $2,000,000 2,142 sq. ft. $934
2017-12-16 Condo Mediterranean/Spanish 7323 Estrella De Mar Carlsbad, CA 92009 $349,000 675 sq. ft. $517
2017-11-30 Condo Mediterranean/Spanish 7323 Estrella De Mar Road Carlsbad, CA 92009 $365,000 690 sq. ft. $529
2017-09-26 Condo 5343 Don Ricardo Dr Carlsbad, CA 92010 $399,900 1,342 sq. ft. $298
2017-09-23 Condo 6901 Quail Pl Carlsbad, CA 92009 $374,900 1,150 sq. ft. $326
2017-09-06 Condo 4847 Nelson Court Carlsbad, CA 92010 $1,300,000 2,357 sq. ft. $552
2017-07-21 Condo 7323 Estrella De Mar Road Carlsbad, CA 92009 $370,000 650 sq. ft. $569
2017-07-10 Condo Mediterranean/Spanish 2005 Costa Del Mar Carlsbad, CA 92009 $485,000 800 sq. ft. $606
2017-06-30 Condo Contemporary 7105 Whitewater Carlsbad, CA 92011 $2,350,000 2,277 sq. ft. $1,032
2017-06-15 Condo Tudor/French Normandy 2630 Pirineos Way Carlsbad, CA 92009 $395,000 978 sq. ft. 46,174 sq. ft. $404